Regional Weather Roundup
Issued by NWS

Home | Current Version | Previous Version | Graphics & Text | Print | Product List | Glossary On
Versions: 1 2 3 4 5 6 7 8 9 10 11 12 13 14 15 16 17 18 19 20 21 22 23 24 25 26 27 28 29 30 31 32 33 34 35 36 37 38 39 40 41 42 43 44 45 46 47 48 49 50
000
ASUS43 KFSD 230510
RWRSD

WEATHER ROUNDUP FOR SOUTH DAKOTA
NATIONAL WEATHER SERVICE SIOUX FALLS SD
1200 AM CDT THU MAR 23 2017

NOTE: "FAIR" INDICATES FEW OR NO CLOUDS BELOW 12,000 FEET WITH NO
SIGNIFICANT WEATHER AND/OR OBSTRUCTIONS TO VISIBILITY.


SDZ001>005-009-010-012>017-230600-
NORTHWEST AND NORTH CENTRAL SOUTH DAKOTA

CITY           SKY/WX    TMP DP  RH WIND       PRES   REMARKS
BUFFALO          N/A     44  37  76 NE10      29.70S
FAITH            N/A     45  36  70 SE17      29.73F
MOBRIDGE       CLEAR     40  26  57 SE17G25   29.81F
$$

SDZ012>016-024>037-041>051-057-063-072>074-230600-
SOUTHWEST AND SOUTH CENTRAL SOUTH DAKOTA

CITY           SKY/WX    TMP DP  RH WIND       PRES   REMARKS
RAPID CTY ARPT CLOUDY    44  38  79 S5        29.76F
PIERRE         CLOUDY    47  30  51 S16       29.85F
CUSTER         CLOUDY    40  36  86 CALM      29.82F
ELLSWORTH AFB  CLOUDY    47  41  80 S8        29.75F
PHILIP         CLOUDY    50  35  56 S7        29.79S
PINE RIDGE     CLOUDY    51  38  60 S24G32    29.80S
SPEARFISH      FAIR      46  39  76 CALM      29.75F
WINNER         FAIR      47  29  49 S22G31    29.90F
$$

SDZ004>011-016>023-039-040-230600-
NORTHEAST SOUTH DAKOTA

CITY           SKY/WX    TMP DP  RH WIND       PRES   REMARKS
ABERDEEN       CLOUDY    35  25  66 S18       29.96F WCI  24
WATERTOWN      PTCLDY    35  25  66 S22G30    30.03F WCI  23
BROOKINGS      CLOUDY    37  25  61 S21G29    30.07F
SISSETON         N/A     34  28  79 S17       30.05F WCI  23
$$

SDZ017-020-022-023-036>040-048>070-230600-
SOUTHEAST SOUTH DAKOTA

CITY           SKY/WX    TMP DP  RH WIND       PRES   REMARKS
SIOUX FALLS    CLOUDY    39  27  62 S14G24    30.10S
HURON          CLOUDY    39  28  64 SE18G28   29.98F
CHAMBERLAIN    CLEAR     41  28  59 E9        29.93S
MITCHELL       CLOUDY    42  29  59 SE22G29   30.02F
YANKTON        CLOUDY    43  25  49 SE10      30.08R
$$

ABBREVIATIONS USED IN REMARKS
   TC - TEMPERATURE IN CELSIUS
  WCI - WIND CHILL INDEX
   HX - HEAT INDEX
  VSB - VISIBILITY





USA.gov is the U.S. government's official web portal to all federal, state and local government web resources and services.